CAPE
0 0 0 0 0 0 0 0 0 0 0 0 0 0 0 0 0 0 0 0 0 0 0 0 0 0 0 0 0 0 1 0 1 4 4 0 0 6 0 3 1 104 1 0
0 0 0 0 0 0 0 0 0 0 0 0 0 0 0 0 0 0 0 0 0 0 0 0 0 0 0 0 0 0 0 0 1 2 1 3 6 7 6 1 5 66 1 0
0 0 0 0 0 0 0 0 0 0 0 0 0 0 0 0 0 0 0 0 0 0 0 0 0 0 0 0 0 0 0 0 1 0 3 3 3 2 4 1 3 12 9 0
0 0 0 0 0 0 0 0 0 0 0 0 0 0 0 0 0 0 0 0 0 0 0 0 0 0 0 0 0 0 0 0 0 1 4 9 12 8 8 7 4 10 7 0
0 0 0 0 0 0 0 0 0 0 0 0 0 0 0 0 0 0 0 0 0 0 0 0 0 0 0 0 0 0 0 0 0 2 1 7 12 12 7 7 4 3 12 17
0 0 0 0 0 0 0 0 0 0 0 0 0 0 0 0 0 0 0 0 0 0 0 0 0 0 0 0 0 0 0 0 0 1 1 5 11 13 12 9 7 4 3 11
0 0 0 0 0 0 0 0 0 0 0 0 0 0 0 0 0 0 0 0 0 0 0 0 0 0 0 0 0 0 0 0 0 0 3 5 6 10 12 11 9 6 1 0
0 0 0 0 0 0 0 0 0 0 0 0 0 0 0 0 0 0 0 0 0 0 0 0 0 0 0 0 0 0 0 0 0 0 2 3 3 7 7 7 8 8 4 0
0 0 0 0 0 0 0 0 0 0 0 0 0 0 0 0 0 0 0 0 0 0 0 0 0 0 0 0 0 0 0 0 0 0 1 3 3 4 8 6 5 5 5 3
0 0 0 0 0 0 0 0 0 0 0 0 0 0 0 0 0 0 0 0 0 0 0 0 0 0 0 0 0 0 0 0 0 0 0 3 3 4 4 3 7 5 6 4
0 0 0 0 0 0 0 0 0 0 0 0 0 0 0 0 0 0 0 0 0 0 0 0 0 0 0 0 0 0 0 0 0 0 0 2 3 3 4 5 5 5 5 6
0 0 0 0 0 0 0 0 0 0 0 0 0 0 0 0 0 0 0 0 0 0 0 0 0 0 0 0 0 0 0 0 0 0 1 1 1 3 3 5 7 5 6 5
0 0 0 0 0 0 0 0 0 0 0 0 0 0 0 0 0 0 0 0 0 0 0 0 0 0 0 0 0 0 0 0 0 0 1 1 1 3 3 4 5 7 6 5
0 0 0 0 0 0 0 0 0 0 0 0 0 0 0 0 0 0 0 0 0 0 0 0 0 0 0 0 0 0 0 0 0 0 1 1 1 2 3 2 4 5 5 3
0 0 0 0 0 0 0 0 0 0 0 0 0 0 0 0 0 0 0 0 0 0 0 0 0 0 0 0 0 0 0 0 0 0 0 1 1 1 1 2 2 3 4 4
0 0 0 0 0 0 0 0 0 0 0 0 0 0 0 0 0 0 0 0 0 0 0 0 0 0 0 0 0 0 0 0 0 0 0 0 0 0 1 2 2 3 5 3
0 0 0 0 0 0 0 0 0 0 0 0 0 0 0 0 0 0 0 0 0 0 0 0 0 0 0 0 0 0 0 0 0 0 0 0 0 0 0 1 1 2 4 5
0 0 0 0 0 0 0 0 0 0 0 0 0 0 0 0 0 0 0 0 0 0 0 0 0 0 0 0 0 0 0 0 0 0 0 0 0 0 0 1 0 1 2 4
0 0 0 0 0 0 0 0 0 0 0 0 0 0 0 0 0 0 0 0 0 0 0 0 0 0 0 0 0 0 0 0 0 0 0 0 0 0 0 0 0 0 1 1
0 0 0 0 0 0 0 0 0 0 0 0 0 0 0 0 0 0 0 0 0 0 0 0 0 0 0 0 0 0 0 0 0 0 0 0 0 0 0 0 0 1 1 1
0 0 0 0 0 0 0 0 0 0 0 0 0 0 0 0 0 0 0 0 0 0 0 0 0 0 0 0 0 0 0 0 0 0 0 0 0 0 0 0 0 0 0 0
0 0 0 0 0 0 0 0 0 0 0 0 0 0 0 0 0 0 0 0 0 0 0 0 0 0 0 0 0 0 0 0 0 0 0 0 0 0 0 0 0 0 0 0
0 0 0 0 0 0 0 0 0 0 0 0 0 0 0 0 0 0 0 0 0 0 0 0 0 0 0 0 0 0 0 0 0 0 0 0 0 0 0 0 0 0 0 0
0 0 0 0 0 0 0 0 0 0 0 0 0 0 0 0 0 0 0 0 0 0 0 0 0 0 0 0 0 0 0 0 0 0 0 0 0 0 0 0 0 0 0 0
0 0 0 0 0 0 0 0 0 0 0 0 0 0 0 0 0 0 0 0 0 0 0 0 0 0 0 0 0 0 0 0 0 0 0 0 0 0 0 0 0 0 0 1
0 0 0 0 0 0 0 0 0 0 0 0 0 0 0 0 0 0 0 0 0 0 0 0 0 0 0 0 0 0 0 0 0 0 0 0 0 0 0 0 0 0 1 1
CIN
-0 -0 -0 -0 -0 -0 -0 -0 -0 -0 -0 -0 -0 -0 -0 -0 -0 -0 -0 -0 -0 -0 -0 -0 -0 -0 -0 -0 -0 -0 -0 -0 -0 -0 -0 -0 -0 -0 -0 -0 -0 -5 -63 -0
-0 -0 -0 -0 -0 -0 -0 -0 -0 -0 -0 -0 -0 -0 -0 -0 -0 -0 -0 -0 -0 -0 -0 -0 -0 -0 -0 -0 -0 -0 -0 -0 -0 -0 -0 -0 -0 -0 -0 -0 -0 -15 -56 -0
-0 -0 -0 -0 -0 -0 -0 -0 -0 -0 -0 -0 -0 -0 -0 -0 -0 -0 -0 -0 -0 -0 -0 -0 -0 -0 -0 -0 -0 -0 -0 -0 -0 -0 -0 -0 -0 -0 -0 -0 -0 -18 -24 -0
-0 -0 -0 -0 -0 -0 -0 -0 -0 -0 -0 -0 -0 -0 -0 -0 -0 -0 -0 -0 -0 -0 -0 -0 -0 -0 -0 -0 -0 -0 -0 -0 -0 -0 -0 -0 -0 -0 -0 -0 -0 -65 -2 -22
-0 -0 -0 -0 -0 -0 -0 -0 -0 -0 -0 -0 -0 -0 -0 -0 -0 -0 -0 -0 -0 -0 -0 -0 -0 -0 -0 -0 -0 -0 -0 -0 -0 -0 -0 -0 -0 -0 -0 -0 -0 -0 -41 -4
-0 -0 -0 -0 -0 -0 -0 -0 -0 -0 -0 -0 -0 -0 -0 -0 -0 -0 -0 -0 -0 -0 -0 -0 -0 -0 -0 -0 -0 -0 -0 -0 -0 -0 -0 -0 -0 -0 -0 -0 -0 -0 -30 -2
-0 -0 -0 -0 -0 -0 -0 -0 -0 -0 -0 -0 -0 -0 -0 -0 -0 -0 -0 -0 -0 -0 -0 -0 -0 -0 -0 -0 -0 -0 -0 -0 -0 -0 -0 -0 -0 -0 -0 -0 -0 -0 -0 -0
-0 -0 -0 -0 -0 -0 -0 -0 -0 -0 -0 -0 -0 -0 -0 -0 -0 -0 -0 -0 -0 -0 -0 -0 -0 -0 -0 -0 -0 -0 -0 -0 -0 -0 -0 -0 -0 -0 -0 -0 -0 -0 -0 -0
-0 -0 -0 -0 -0 -0 -0 -0 -0 -0 -0 -0 -0 -0 -0 -0 -0 -0 -0 -0 -0 -0 -0 -0 -0 -0 -0 -0 -0 -0 -0 -0 -0 -0 -0 -0 -0 -0 -0 -0 -0 -0 -0 -0
-0 -0 -0 -0 -0 -0 -0 -0 -0 -0 -0 -0 -0 -0 -0 -0 -0 -0 -0 -0 -0 -0 -0 -0 -0 -0 -0 -0 -0 -0 -0 -0 -0 -0 -0 -0 -0 -0 -0 -0 -0 -0 -0 -0
-0 -0 -0 -0 -0 -0 -0 -0 -0 -0 -0 -0 -0 -0 -0 -0 -0 -0 -0 -0 -0 -0 -0 -0 -0 -0 -0 -0 -0 -0 -0 -0 -0 -0 -0 -0 -0 -0 -0 -0 -0 -0 -0 -0
-0 -0 -0 -0 -0 -0 -0 -0 -0 -0 -0 -0 -0 -0 -0 -0 -0 -0 -0 -0 -0 -0 -0 -0 -0 -0 -0 -0 -0 -0 -0 -0 -0 -0 -0 -0 -0 -0 -0 -0 -0 -0 -0 -0
-0 -0 -0 -0 -0 -0 -0 -0 -0 -0 -0 -0 -0 -0 -0 -0 -0 -0 -0 -0 -0 -0 -0 -0 -0 -0 -0 -0 -0 -0 -0 -0 -0 -0 -0 -0 -0 -0 -0 -0 -0 -0 -0 -0
-0 -0 -0 -0 -0 -0 -0 -0 -0 -0 -0 -0 -0 -0 -0 -0 -0 -0 -0 -0 -0 -0 -0 -0 -0 -0 -0 -0 -0 -0 -0 -0 -0 -0 -0 -0 -0 -0 -0 -0 -0 -0 -0 -0
-0 -0 -0 -0 -0 -0 -0 -0 -0 -0 -0 -0 -0 -0 -0 -0 -0 -0 -0 -0 -0 -0 -0 -0 -0 -0 -0 -0 -0 -0 -0 -0 -0 -0 -0 -0 -0 -0 -0 -0 -0 -0 -0 -0
-0 -0 -0 -0 -0 -0 -0 -0 -0 -0 -0 -0 -0 -0 -0 -0 -0 -0 -0 -0 -0 -0 -0 -0 -0 -0 -0 -0 -0 -0 -0 -0 -0 -0 -0 -0 -0 -0 -0 -0 -0 -0 -0 -0
-0 -0 -0 -0 -0 -0 -0 -0 -0 -0 -0 -0 -0 -0 -0 -0 -0 -0 -0 -0 -0 -0 -0 -0 -0 -0 -0 -0 -0 -0 -0 -0 -0 -0 -0 -0 -0 -0 -0 -0 -0 -0 -0 -0
-0 -0 -0 -0 -0 -0 -0 -0 -0 -0 -0 -0 -0 -0 -0 -0 -0 -0 -0 -0 -0 -0 -0 -0 -0 -0 -0 -0 -0 -0 -0 -0 -0 -0 -0 -0 -0 -0 -0 -0 -0 -0 -0 -0
-0 -0 -0 -0 -0 -0 -0 -0 -0 -0 -0 -0 -0 -0 -0 -0 -0 -0 -0 -0 -0 -0 -0 -0 -0 -0 -0 -0 -0 -0 -0 -0 -0 -0 -0 -0 -0 -0 -0 -0 -0 -0 -0 -0
-0 -0 -0 -0 -0 -0 -0 -0 -0 -0 -0 -0 -0 -0 -0 -0 -0 -0 -0 -0 -0 -0 -0 -0 -0 -0 -0 -0 -0 -0 -0 -0 -0 -0 -0 -0 -0 -0 -0 -0 -0 -0 -0 -0
-0 -0 -0 -0 -0 -0 -0 -0 -0 -0 -0 -0 -0 -0 -0 -0 -0 -0 -0 -0 -0 -0 -0 -0 -0 -0 -0 -0 -0 -0 -0 -0 -0 -0 -0 -0 -0 -0 -0 -0 -0 -0 -0 -0
-0 -0 -0 -0 -0 -0 -0 -0 -0 -0 -0 -0 -0 -0 -0 -0 -0 -0 -0 -0 -0 -0 -0 -0 -0 -0 -0 -0 -0 -0 -0 -0 -0 -0 -0 -0 -0 -0 -0 -0 -0 -0 -0 -0
-0 -0 -0 -0 -0 -0 -0 -0 -0 -0 -0 -0 -0 -0 -0 -0 -0 -0 -0 -0 -0 -0 -0 -0 -0 -0 -0 -0 -0 -0 -0 -0 -0 -0 -0 -0 -0 -0 -0 -0 -0 -0 -0 -0
-0 -0 -0 -0 -0 -0 -0 -0 -0 -0 -0 -0 -0 -0 -0 -0 -0 -0 -0 -0 -0 -0 -0 -0 -0 -0 -0 -0 -0 -0 -0 -0 -0 -0 -0 -0 -0 -0 -0 -0 -0 -0 -0 -0
-0 -0 -0 -0 -0 -0 -0 -0 -0 -0 -0 -0 -0 -0 -0 -0 -0 -0 -0 -0 -0 -0 -0 -0 -0 -0 -0 -0 -0 -0 -0 -0 -0 -0 -0 -0 -0 -0 -0 -0 -0 -0 -0 -0
-0 -0 -0 -0 -0 -0 -0 -0 -0 -0 -0 -0 -0 -0 -0 -0 -0 -0 -0 -0 -0 -0 -0 -0 -0 -0 -0 -0 -0 -0 -0 -0 -0 -0 -0 -0 -0 -0 -0 -0 -0 -0 -0 -0
Wind_Speed
21 24 27 26 26 24 25 29 31 32 26 33 30 33 34 27 28 31 32 37 39 42 42 42 40 40 40 41 42 43 44 44 44 42 42 41 41 39 45 48 44 51 43 40
22 22 20 22 24 28 27 28 30 26 27 28 30 32 30 26 26 26 30 35 39 41 43 42 41 39 38 39 39 41 43 43 43 42 41 40 44 42 43 43 41 45 46 43
21 17 19 23 26 34 29 26 29 31 29 24 32 32 30 28 24 22 25 32 37 40 43 43 41 38 37 37 38 39 41 42 42 41 41 41 41 40 41 44 47 43 49 46
19 17 21 23 26 30 29 22 28 26 26 33 31 41 31 30 25 21 26 34 37 38 39 41 39 37 35 35 35 36 39 40 40 40 41 42 43 44 41 41 45 45 34 50
20 20 22 22 24 25 22 26 23 21 24 28 30 33 33 31 28 22 26 30 31 33 36 40 37 35 34 33 33 34 35 38 38 39 39 41 43 42 42 40 41 41 43 50
20 20 20 20 23 23 29 27 24 23 26 32 29 33 33 33 30 26 27 28 25 26 31 37 35 33 32 31 31 31 32 34 36 37 37 38 40 41 42 40 36 47 43 37
23 19 18 21 23 23 32 30 29 27 32 32 24 31 27 28 25 22 25 25 20 17 23 35 33 32 30 30 29 28 29 31 34 35 36 36 37 38 39 41 34 41 45 38
24 22 20 21 23 25 26 26 28 28 31 30 23 29 29 25 24 21 22 21 17 15 15 23 32 30 29 29 27 26 26 28 31 34 33 33 36 35 36 39 41 35 43 40
24 20 19 20 20 22 21 25 21 24 24 29 25 24 21 24 24 23 24 24 21 13 10 4 30 29 28 27 26 25 24 25 27 30 30 31 33 33 34 36 37 37 39 40
20 24 19 18 19 23 19 18 25 27 29 31 29 29 28 31 30 27 27 26 22 14 8 2 22 27 27 26 25 24 23 23 24 26 27 29 31 32 32 33 37 37 35 40
21 20 21 20 16 16 19 18 22 22 22 28 32 30 20 25 27 28 29 25 22 14 8 2 8 25 25 25 24 23 22 22 22 23 24 27 28 29 31 32 32 35 34 37
18 21 22 19 18 16 17 15 16 23 24 20 23 24 19 22 24 25 27 24 21 17 10 5 5 21 24 24 24 22 22 21 21 21 22 24 26 27 29 30 30 33 34 32
17 20 30 22 19 18 16 14 13 17 18 18 24 25 20 23 25 24 24 24 21 19 15 9 4 19 23 23 23 23 22 21 20 20 20 21 24 25 27 29 29 29 32 35
18 18 19 15 20 21 17 14 9 11 17 20 15 18 18 20 22 24 24 23 22 20 17 14 2 17 21 22 23 23 22 21 20 20 20 21 22 24 26 27 28 28 28 31
20 20 20 10 10 9 9 7 5 2 6 14 19 18 17 17 18 20 21 22 22 21 19 17 12 16 21 22 22 23 23 22 20 19 19 20 22 22 23 25 26 26 26 27
19 23 27 31 22 17 9 5 3 3 4 7 10 14 13 12 15 19 20 22 21 21 20 19 15 9 23 22 23 23 23 23 21 20 20 21 22 22 23 24 24 25 25 26
18 22 30 27 31 33 11 11 4 8 8 10 13 11 17 15 15 18 19 20 20 20 20 20 17 13 10 24 23 23 23 23 22 21 21 21 22 22 22 23 23 23 24 25
17 21 25 31 35 20 16 15 12 7 9 2 6 7 9 11 13 13 15 18 19 19 20 19 18 16 12 23 24 24 23 23 23 22 22 22 22 22 22 22 22 23 23 23
16 19 24 27 28 25 18 16 14 13 16 5 5 7 8 14 17 14 18 17 18 18 18 18 18 17 15 12 25 24 24 23 23 23 23 23 23 23 22 23 23 23 23 23
18 16 20 26 26 19 18 15 17 19 19 11 12 14 13 18 21 17 19 17 16 16 17 17 17 18 17 14 12 25 25 24 24 24 24 24 23 22 23 22 22 22 22 23
21 21 17 18 22 22 13 13 17 23 23 17 14 15 15 15 14 16 16 16 14 14 15 15 17 18 18 16 14 13 20 25 25 25 24 24 23 22 22 22 21 22 22 22
20 20 22 18 21 23 9 15 17 21 24 20 15 13 14 12 12 12 13 13 13 12 13 14 15 17 17 17 16 14 12 17 26 26 25 24 24 22 22 22 22 22 22 23
25 16 21 13 20 22 9 15 12 22 24 20 15 13 16 14 12 12 13 13 12 12 11 12 14 15 16 17 16 16 13 12 20 26 26 25 24 23 22 22 22 22 23 23
24 19 23 23 21 14 11 8 11 16 13 12 12 13 14 13 12 11 12 13 12 13 11 11 13 14 15 16 17 16 15 14 14 21 25 26 26 25 23 22 22 22 22 23
26 21 25 26 35 39 27 14 17 19 22 24 15 10 9 12 11 12 11 13 13 12 12 11 11 13 13 15 16 16 15 15 14 14 20 24 25 25 25 24 23 23 21 22
24 25 24 28 24 23 27 22 21 25 32 30 23 18 15 16 13 15 14 15 15 14 13 11 11 12 13 14 15 16 16 15 13 12 14 22 24 25 25 25 25 24 22 22
Wind_Direction
346 343 342 350 355 355 351 349 349 351 359 352 355 347 346 348 349 343 340 333 326 320 318 314 308 300 293 285 276 268 263 260 257 256 256 253 253 258 252 244 240 224 220 217
343 342 353 354 358 352 354 354 355 0 356 356 355 350 354 357 353 350 347 339 331 326 322 316 310 304 297 287 280 270 262 259 255 253 253 252 253 250 252 246 242 229 219 217
343 351 356 352 351 347 355 358 358 353 357 3 360 360 5 3 0 359 356 347 336 329 324 320 311 305 300 291 282 273 263 258 255 253 253 252 251 250 250 248 240 232 222 218
351 358 350 347 350 354 354 6 357 357 6 2 10 359 6 6 3 3 357 349 340 335 330 323 314 304 302 294 285 276 265 258 254 252 250 247 245 245 248 253 243 241 236 218
348 351 345 349 354 1 3 358 0 13 11 8 11 6 8 11 5 360 359 357 352 344 335 324 316 305 304 298 288 279 269 256 254 250 249 246 244 247 247 254 246 243 235 227
352 351 352 355 358 3 355 6 15 19 16 9 15 14 10 12 11 7 4 2 1 356 347 329 316 311 307 303 294 283 271 257 253 250 248 244 245 248 247 244 257 239 236 243
349 354 357 357 358 2 355 11 9 12 11 9 20 12 8 12 11 9 5 5 4 6 3 328 315 312 308 306 299 288 276 260 251 250 248 245 246 249 249 248 254 242 235 249
347 348 353 355 360 357 7 21 16 8 8 5 11 15 17 17 15 12 10 7 6 12 17 355 316 313 309 309 304 293 281 266 256 249 249 247 247 249 250 249 250 254 241 238
349 349 352 355 6 6 15 17 27 15 18 14 19 16 10 18 13 13 12 13 13 13 24 12 311 313 311 312 308 298 286 271 261 252 251 247 247 250 251 251 249 254 244 238
357 342 353 1 6 1 13 33 16 19 15 12 16 16 17 18 17 20 15 16 17 18 29 328 298 312 313 313 309 303 292 277 268 257 254 249 251 252 253 254 250 251 253 243
360 351 351 357 8 7 11 21 23 24 24 16 14 16 28 19 20 20 18 19 21 23 29 322 265 305 309 314 313 307 299 286 276 264 262 255 255 255 255 255 255 253 250 241
2 350 347 356 3 8 9 15 24 16 18 21 18 19 29 22 19 21 17 20 24 29 35 50 246 295 312 313 317 311 305 294 284 272 266 261 261 260 258 258 260 255 253 249
5 353 333 351 1 2 1 11 20 23 24 17 20 16 27 24 19 18 20 23 27 30 36 51 238 290 307 311 317 316 309 301 292 279 271 269 268 267 263 261 264 262 255 253
359 355 345 344 346 351 351 358 16 24 18 19 9 359 354 4 9 16 22 27 29 32 37 45 92 281 300 308 316 320 315 308 301 288 277 273 274 273 268 265 266 264 260 254
349 347 345 326 281 288 278 306 350 327 7 11 15 8 344 352 6 15 23 28 31 34 39 44 52 278 295 305 313 320 320 315 307 296 284 281 282 280 276 270 270 268 265 260
345 340 339 338 349 354 338 306 297 253 332 297 306 325 334 356 20 23 25 29 32 35 41 45 51 68 300 302 309 317 322 320 313 300 293 287 289 287 282 277 276 272 268 265
342 340 334 338 333 324 359 21 64 25 23 19 12 6 20 14 15 22 25 29 34 39 42 45 50 57 276 307 308 314 321 321 318 306 297 294 290 287 287 281 280 276 271 268
338 337 338 332 325 348 3 6 14 13 8 351 356 348 359 8 12 16 28 33 39 43 43 46 50 54 63 330 313 312 317 322 320 313 304 299 292 290 292 286 281 279 276 272
335 336 336 336 336 331 345 5 5 9 3 26 25 8 10 23 25 24 37 41 41 45 45 47 50 54 56 65 324 315 314 315 318 315 309 304 297 291 291 286 283 282 278 274
337 333 331 333 336 342 346 2 4 1 1 41 26 17 19 25 20 20 34 36 41 44 46 47 50 52 53 57 63 331 315 313 312 312 310 307 302 295 291 289 284 284 281 276
329 329 323 325 329 328 333 353 360 351 353 6 10 11 16 16 19 21 22 29 36 39 43 46 47 46 48 52 57 58 360 315 308 307 307 308 305 299 295 291 289 287 283 280
323 323 324 330 328 328 360 355 347 348 346 352 359 4 6 5 5 8 15 21 27 31 36 42 41 41 44 48 48 52 53 12 314 307 306 306 305 301 298 294 289 285 283 278
312 315 319 315 321 325 327 329 333 338 340 344 345 351 355 356 359 6 10 14 18 24 30 35 34 35 39 40 42 40 45 44 1 315 303 302 302 300 295 294 292 286 284 281
312 309 309 316 318 320 315 283 317 333 330 334 334 337 344 348 354 355 0 5 10 16 20 26 26 26 28 32 33 34 36 36 28 352 313 300 299 297 294 291 289 289 285 281
313 313 305 302 300 289 309 337 343 343 341 339 346 338 335 345 342 349 350 357 360 3 10 15 14 15 18 23 24 24 27 26 23 14 339 308 295 293 291 287 285 284 286 286
303 302 298 302 310 304 311 329 340 338 330 333 340 341 340 340 339 347 345 351 354 354 360 2 5 6 9 12 13 14 16 16 15 12 360 324 303 290 287 285 280 279 281 283